Watsonville, CA

12:51 PM PST on January 18, 2018 (GMT -0800)
Watsonville Municipal

Weather History for KWVI - March, 2014

Change the Weather History Date:

Friday, March 28, 2014

  Actual Average Record
Temperature  
Mean Temperature 58 °F 54 °F  
Max Temperature 66 °F 64 °F 83 °F (2004)
Min Temperature 50 °F 43 °F 35 °F (2007)
Degree Days  
Heating Degree Days 7    
Month to date heating degree days 207  
Since 1 July heating degree days 1946  
Cooling Degree Days 0    
Month to date cooling degree days 0  
Year to date cooling degree days 0  
Growing Degree Days 7 (Base 50)    
Moisture  
Dew Point 50 °F    
Average Humidity 75    
Maximum Humidity 93    
Minimum Humidity 56    
Precipitation  
Precipitation 0.00 in - 2.18 in (1974)
Month to date precipitation 1.50  
Year to date precipitation 6.25  
Since 1 July precipitation 7.32  
Sea Level Pressure  
Sea Level Pressure 30.18 in    
Wind  
Wind Speed 3 mph (West)    
Max Wind Speed 13 mph    
Max Gust Speed 21 mph    
Visibility 10 miles    
Events      
T = Trace of Precipitation, MM = Missing Value Source: NWS Daily Summary

Daily Weather History Graph

Daily Weather History Graph

Search for Another Location

Airport or City:

Trip Planner

Search our weather history database for the weather conditions in past years. The results will help you decide how hot, cold, wet, or windy it might be!

Date:

Astronomy

Mar. 28, 2014 Rise Set
Actual Time 6:58 AM PDT 7:26 PM PDT
Civil Twilight 6:32 AM PDT 7:52 PM PDT
Nautical Twilight 6:02 AM PDT 8:22 PM PDT
Astronomical Twilight 5:30 AM PDT 8:54 PM PDT
Moon 5:29 AM PDT (3/28) 5:31 PM PDT (3/28)
Length of Visible Light 13h 19m
Length of Day
12h 27m
Waning Crescent, 5% of the Moon is Illuminated
Mar 28
Waning Crescent
Mar 30
New
Apr 7
First Quarter
Apr 15
Full
Apr 22
Last Quarter

Hourly Weather History & Observations

Time (PDT) Temp. Dew Point Humidity Pressure Visibility Wind Dir Wind Speed Gust Speed Precip Events Conditions
12:53 AM 53.1 °F 50.0 °F 89% 30.16 in 10.0 mi Calm Calm - N/A   Mostly Cloudy
1:12 AM 51.8 °F 48.2 °F 88% 30.16 in 10.0 mi West 3.5 mph - N/A   Mostly Cloudy
1:53 AM 51.1 °F 48.9 °F 92% 30.17 in 10.0 mi WNW 3.5 mph - N/A   Overcast
2:33 AM 51.8 °F 48.2 °F 88% 30.17 in 10.0 mi NW 3.5 mph - N/A   Mostly Cloudy
2:46 AM 51.8 °F 48.2 °F 88% 30.17 in 10.0 mi NW 3.5 mph - N/A   Overcast
2:53 AM 50.0 °F 48.0 °F 93% 30.17 in 10.0 mi Calm Calm - N/A   Mostly Cloudy
3:07 AM 50.0 °F 48.2 °F 94% 30.16 in 10.0 mi NW 3.5 mph - N/A   Scattered Clouds
3:31 AM 50.0 °F 48.2 °F 94% 30.16 in 10.0 mi NNW 3.5 mph - N/A   Mostly Cloudy
3:53 AM 50.0 °F 48.0 °F 93% 30.15 in 10.0 mi Calm Calm - N/A   Overcast
4:40 AM 50.0 °F 46.4 °F 87% 30.16 in 10.0 mi NNW 3.5 mph - N/A   Overcast
4:53 AM 51.1 °F 48.0 °F 89% 30.16 in 10.0 mi Calm Calm - N/A   Overcast
5:53 AM 51.1 °F 48.0 °F 89% 30.16 in 10.0 mi WNW 3.5 mph - N/A   Overcast
6:53 AM 51.1 °F 48.0 °F 89% 30.18 in 10.0 mi WNW 3.5 mph - N/A   Overcast
7:53 AM 52.0 °F 48.0 °F 86% 30.20 in 10.0 mi NNW 3.5 mph - N/A   Overcast
8:53 AM 55.0 °F 50.0 °F 83% 30.22 in 10.0 mi Calm Calm - N/A   Overcast
9:53 AM 55.9 °F 50.0 °F 80% 30.23 in 10.0 mi Calm Calm - N/A   Overcast
10:53 AM 59.0 °F 50.0 °F 72% 30.23 in 10.0 mi Calm Calm - N/A   Overcast
11:15 AM 59.0 °F 50.0 °F 72% 30.22 in 10.0 mi Calm Calm - N/A   Scattered Clouds
11:53 AM 62.1 °F 50.0 °F 65% 30.22 in 10.0 mi Calm Calm - N/A   Clear
12:53 PM 64.9 °F 51.1 °F 61% 30.21 in 10.0 mi South 5.8 mph - N/A   Clear
1:53 PM 64.9 °F 48.9 °F 56% 30.19 in 10.0 mi South 6.9 mph - N/A   Clear
2:53 PM 64.0 °F 50.0 °F 60% 30.18 in 10.0 mi WSW 9.2 mph - N/A   Clear
3:53 PM 62.1 °F 50.0 °F 65% 30.17 in 10.0 mi SW 9.2 mph - N/A   Clear
4:53 PM 61.0 °F 51.1 °F 70% 30.15 in 10.0 mi SW 9.2 mph - N/A   Clear
5:53 PM 60.1 °F 50.0 °F 69% 30.14 in 10.0 mi WSW 6.9 mph - N/A   Clear
6:53 PM 57.0 °F 51.1 °F 81% 30.15 in 10.0 mi WSW 8.1 mph - N/A   Clear
7:53 PM 55.9 °F 52.0 °F 87% 30.16 in 10.0 mi Calm Calm - N/A   Clear
8:53 PM 55.0 °F 53.1 °F 93% 30.18 in 10.0 mi Calm Calm - N/A   Scattered Clouds
9:01 PM 55.4 °F 53.6 °F 94% 30.18 in 10.0 mi Calm Calm - N/A   Mostly Cloudy
9:20 PM 53.6 °F 51.8 °F 94% 30.18 in 10.0 mi Calm Calm - N/A   Scattered Clouds
9:53 PM 54.0 °F 52.0 °F 93% 30.19 in 10.0 mi Calm Calm - N/A   Partly Cloudy
10:11 PM 55.4 °F 51.8 °F 88% 30.19 in 10.0 mi Calm Calm - N/A   Mostly Cloudy
10:40 PM 53.6 °F 51.8 °F 94% 30.19 in 10.0 mi Calm Calm - N/A   Overcast
10:53 PM 54.0 °F 51.1 °F 90% 30.19 in 10.0 mi Calm Calm - N/A   Mostly Cloudy
11:06 PM 53.6 °F 51.8 °F 94% 30.19 in 10.0 mi Calm Calm - N/A   Scattered Clouds
11:53 PM 53.1 °F 50.0 °F 89% 30.19 in 10.0 mi Calm Calm - N/A   Partly Cloudy